This is the latest recevied weather packets stored in our database for station/object WA1TYB-13. If no packets are shown the sender has not sent any weather packets the latest 10 day(s).
| Time | Temp. | Humidity | Pressure | Rain* | Wind** | Luminosity | Snow |
|---|---|---|---|---|---|---|---|
| 1788481516 | 23.89° C | 19% | 1010.1 hPa | 0 mm | - | 57 W/m² | - |
| 1788481215 | 23.89° C | 18% | 1009.7 hPa | 0 mm | - | 81 W/m² | - |
| 1788480911 | 23.89° C | 18% | 1010.1 hPa | 0 mm | - | 88 W/m² | - |
| 1788480610 | 23.89° C | 18% | 1010.3 hPa | 0 mm | - | 88 W/m² | - |
| 1788480310 | 23.89° C | 18% | 1010.2 hPa | 0 mm | - | 89 W/m² | - |
| 1788480006 | 23.89° C | 18% | 1010.2 hPa | 0 mm | - | 101 W/m² | - |
| 1788479701 | 23.89° C | 17% | 1010.3 hPa | 0 mm | - | 84 W/m² | - |
| 1788479395 | 23.89° C | 17% | 1010.2 hPa | 0 mm | - | 100 W/m² | - |
| 1788479091 | 24.44° C | 16% | 1010.3 hPa | 0 mm | - | 116 W/m² | - |
| 1788478787 | 24.44° C | 17% | 1010.2 hPa | 0 mm | - | 78 W/m² | - |
| 1788478483 | 25.56° C | 15% | 1010.2 hPa | 0 mm | - | 276 W/m² | - |
| 1788478178 | 25° C | 15% | 1010.2 hPa | 0 mm | - | 328 W/m² | - |
| 1788477873 | 25° C | 16% | 1010.3 hPa | 0 mm | - | 326 W/m² | - |
| 1788477573 | 25° C | 15% | 1010.3 hPa | 0 mm | - | 332 W/m² | - |
| 1788477268 | 25° C | 15% | 1010.3 hPa | 0 mm | - | 360 W/m² | - |
| 1788476962 | 25.56° C | 16% | 1010.4 hPa | 0 mm | - | 109 W/m² | - |
| 1788476658 | 25° C | 15% | 1010.4 hPa | 0 mm | - | 479 W/m² | - |
| 1788476354 | 23.89° C | 17% | 1009.9 hPa | 0 mm | - | 117 W/m² | - |
| 1788476050 | 23.89° C | 17% | 1010.5 hPa | 0 mm | - | 91 W/m² | - |
| 1788475746 | 23.89° C | 17% | 1010.7 hPa | 0 mm | - | 107 W/m² | - |
| 1788475442 | 23.89° C | 16% | 1010.6 hPa | 0 mm | - | 111 W/m² | - |
| 1788475138 | 23.89° C | 16% | 1010.5 hPa | 0 mm | - | 98 W/m² | - |
| 1788474836 | 23.89° C | 16% | 1010.4 hPa | 0 mm | - | 76 W/m² | - |
| 1788474531 | 24.44° C | 16% | 1010.5 hPa | 0 mm | - | 104 W/m² | - |
| 1788474231 | 25° C | 15% | 1010.4 hPa | 0 mm | - | 140 W/m² | - |
* Rain latest hour (hover to see other rain measurements)
** Current wind speed in m/s (hover to see current wind gust speed)